Hourly Data Report for October 29, 2019

SAINT JOHN A
NEW BRUNSWICK
Current Station Operator: NAVCAN

45°18'58.000" N
65°53'24.000" W
108.80 m
8104901
71609
YSJ

Download Data

Hourly Data (October 2019)
Hourly Data Report for October 29, 2019
TIME
LST
Temp Definition
°C
Dew Point Definition
°C
Rel Hum Definition
%
Precip. Amount Definition
mm

Wind Dir Definition
10's deg

Wind Spd Definition
km/h
Visibility Definition
km
Stn Press Definition
kPa
Hmdx Definition


Wind Chill Definition


Weather Definition


00:00 -0.3 -0.6 98   36 3 19.3 101.50   -1 LegendNANA
01:00 -1.1 -1.3 98   36 3 24.1 101.52   -2 LegendNANA
02:00 -0.3 -0.5 99   2 4 24.1 101.54   -2 Clear
03:00 -1.1 -1.3 99   4 3 16.1 101.58   -2 LegendNANA
04:00 -1.3 -1.5 98   6 4 16.1 101.57   -3 LegendNANA
05:00 -0.9 -1.0 99   3 3 24.1 101.61   -2 Clear
06:00 -1.1 -1.2 99   2 3 16.1 101.61   -2 LegendNANA
07:00 -0.8 -0.9 100   2 4 24.1 101.59   -2 LegendNANA
08:00 0.3 0.3 100   36 1 24.1 101.63     Clear
09:00 5.8 5.8 100   36 1 24.1 101.66     LegendNANA
10:00 10.2 6.3 76   17 10 24.1 101.65     LegendNANA
11:00 9.9 4.0 66   19 9 24.1 101.64     Mainly Clear
12:00 10.6 4.3 65   24 10 24.1 101.56     LegendNANA
13:00 11.9 4.6 61   13 9 24.1 101.48     LegendNANA
14:00 11.5 4.0 60   21 14 24.1 101.48     Mostly Cloudy
15:00 10.9 3.7 61   18 19 24.1 101.48     LegendNANA
16:00 10.3 5.0 69   17 16 24.1 101.42     LegendNANA
17:00 8.5 5.7 82   21 10 24.1 101.39     Mostly Cloudy
18:00 6.6 5.3 91   36 2 24.1 101.43     LegendNANA
19:00 6.1 5.2 94   21 7 24.1 101.41     LegendNANA
20:00 4.4 3.4 93   15 4 24.1 101.41     Mainly Clear
21:00 2.0 1.6 97   2 3 24.1 101.43     LegendNANA
22:00 1.5 1.1 97   18 4 24.1 101.42     LegendNANA
23:00 0.8 0.6 98   17 3 24.1 101.37     Mainly Clear

Notes on Data Quality.

Legend

  • E = Estimated
  • M = Missing
  • NA = Not Available*
  • [empty] = Indicates an unobserved value
Date modified: